TimeEST,TemperatureF,Dew PointF,Humidity,Sea Level PressureIn,VisibilityMPH,Wind Direction,Wind SpeedMPH,Gust SpeedMPH,PrecipitationIn,Events,Conditions,WindDirDegrees,DateUTC
12:53 AM,39.0,33.1,79,29.97,10.0,SSE,3.5,-,N/A,,Overcast,160,2012-12-07 05:53:00
1:53 AM,39.9,34.0,79,29.96,10.0,Calm,Calm,-,N/A,,Overcast,0,2012-12-07 06:53:00
2:53 AM,39.9,35.1,83,29.98,10.0,WSW,3.5,-,N/A,,Overcast,240,2012-12-07 07:53:00
3:53 AM,37.9,34.0,86,29.97,10.0,Calm,Calm,-,N/A,,Partly Cloudy,0,2012-12-07 08:53:00
4:53 AM,37.0,34.0,89,29.96,9.0,SSW,3.5,-,N/A,,Mostly Cloudy,210,2012-12-07 09:53:00
5:53 AM,39.9,36.0,86,29.95,10.0,Calm,Calm,-,N/A,,Mostly Cloudy,0,2012-12-07 10:53:00
6:53 AM,39.9,37.0,89,29.97,10.0,Calm,Calm,-,N/A,,Overcast,0,2012-12-07 11:53:00
7:53 AM,42.1,37.9,85,29.98,9.0,Calm,Calm,-,N/A,,Overcast,0,2012-12-07 12:53:00
8:53 AM,42.1,39.0,89,29.99,5.0,SSW,3.5,-,0.00,Rain,Light Rain,210,2012-12-07 13:53:00
9:53 AM,43.0,41.0,93,29.99,3.0,Calm,Calm,-,0.02,Rain,Light Rain,0,2012-12-07 14:53:00
10:30 AM,42.8,41.0,93,29.98,2.5,Calm,Calm,-,0.01,Rain,Light Rain,0,2012-12-07 15:30:00
10:46 AM,42.8,41.0,93,29.97,3.0,Calm,Calm,-,0.01,Rain,Light Rain,0,2012-12-07 15:46:00
10:53 AM,43.0,41.0,93,29.99,3.0,Calm,Calm,-,0.01,,Overcast,0,2012-12-07 15:53:00
11:53 AM,45.0,41.0,86,29.96,4.0,Calm,Calm,-,N/A,,Overcast,0,2012-12-07 16:53:00
12:01 PM,44.6,41.0,87,29.95,4.0,SSW,3.5,-,N/A,,Overcast,210,2012-12-07 17:01:00
12:19 PM,44.6,41.0,87,29.94,4.0,South,3.5,-,N/A,,Overcast,190,2012-12-07 17:19:00
12:53 PM,45.0,42.1,90,29.95,4.0,South,6.9,-,N/A,,Overcast,190,2012-12-07 17:53:00
1:53 PM,46.0,42.1,86,29.93,4.0,SSW,3.5,-,N/A,,Overcast,200,2012-12-07 18:53:00
2:35 PM,46.4,42.8,87,29.90,4.0,SSW,4.6,-,N/A,,Overcast,200,2012-12-07 19:35:00
2:53 PM,46.9,43.0,86,29.91,4.0,SSW,3.5,-,N/A,,Overcast,210,2012-12-07 19:53:00
3:53 PM,46.9,43.0,86,29.91,4.0,Calm,Calm,-,N/A,,Overcast,0,2012-12-07 20:53:00
4:53 PM,46.0,43.0,89,29.91,3.0,North,3.5,-,0.00,Rain,Light Rain,10,2012-12-07 21:53:00
5:25 PM,46.4,42.8,87,29.90,4.0,NNE,3.5,-,0.00,Rain,Light Rain,20,2012-12-07 22:25:00
5:53 PM,46.0,43.0,89,29.92,3.0,Calm,Calm,-,0.00,Rain,Light Rain,0,2012-12-07 22:53:00
6:53 PM,45.0,43.0,93,29.91,2.5,Calm,Calm,-,0.01,Rain,Light Rain,0,2012-12-07 23:53:00
7:53 PM,45.0,43.0,93,29.91,2.5,ENE,4.6,-,0.01,,Overcast,60,2012-12-08 00:53:00
8:53 PM,45.0,43.0,93,29.91,2.5,Calm,Calm,-,0.00,Rain,Light Rain,0,2012-12-08 01:53:00
9:11 PM,44.6,42.8,93,29.89,1.8,East,3.5,-,0.01,Rain,Light Rain,100,2012-12-08 02:11:00
9:20 PM,44.6,42.8,93,29.89,1.5,ENE,3.5,-,0.02,Rain,Light Rain,70,2012-12-08 02:20:00
9:34 PM,44.6,42.8,93,29.89,2.0,ENE,3.5,-,0.02,Rain,Light Rain,70,2012-12-08 02:34:00
9:45 PM,44.6,42.8,93,29.88,1.8,ENE,3.5,-,0.02,,Overcast,70,2012-12-08 02:45:00
9:53 PM,44.1,43.0,96,29.89,1.8,ENE,3.5,-,0.02,,Overcast,60,2012-12-08 02:53:00
10:03 PM,44.6,42.8,93,29.87,1.8,ENE,5.8,-,N/A,,Overcast,70,2012-12-08 03:03:00
10:10 PM,44.6,42.8,93,29.87,2.0,ENE,4.6,-,N/A,,Overcast,60,2012-12-08 03:10:00
10:23 PM,44.6,42.8,93,29.86,2.0,ENE,3.5,-,N/A,,Overcast,60,2012-12-08 03:23:00
10:53 PM,44.1,43.0,96,29.87,2.0,NE,4.6,-,N/A,,Overcast,40,2012-12-08 03:53:00
11:09 PM,44.6,42.8,93,29.86,2.5,ENE,4.6,-,N/A,,Overcast,60,2012-12-08 04:09:00
11:53 PM,44.1,43.0,96,29.86,2.0,ENE,4.6,-,0.02,Rain,Light Rain,60,2012-12-08 04:53:00